カタログに戻る

SL-16 DEB

運用中LEO
NORAD 22620·DEBRIS·🇷🇺 Russia

打ち上げ Mar 26, 1993 から Baikonur Cosmodrome

Loading…

次のパス (今後24時間)

TLE

最新Source: Space-Track

元期: Sep 14, 2026, 14:49 UTC

1 22620U 93016AE  26257.61793626 -.00000019  00000-0  20344-4 0  9991
2 22620  71.0086  17.6243 0132053  81.5358 291.4906 13.84136984689914

AllMySatでSL-16 DEBをリアルタイム追跡

Download on the App Store